Location: Unspecified
(40.9447°N, 78.9903°W)
Time: 07:07:08
(UTC-04:00)

Cosmos 1674 - Pass Details

Date: 31 July 2021
Orbit: 492 x 516 km, 82.5° (Epoch: 16 September)

Event Time Altitude Azimuth Distance (km) Brightness Sun altitude
Rises 04:28:45 0° 341° (NNW) 2,644 6.6 -16.8°
Reaches altitude 10° 04:31:04 10° 330° (NNW) 1,751 5.5 -16.5°
Maximum altitude 04:34:25 29° 269° (W) 965 3.6 -16.0°
Enters shadow 04:34:47 28° 258° (WSW) 978 3.6 -16.0°
